Back to catalog

STARLINK-32256

AliveCommunicationsVLEO
NORAD 60362·PAYLOAD·🇺🇸 United States

Launched Aug 4, 2024 from Vandenberg Space Force Base

Loading…

Next Passes (next 24 hours)

TLE

FreshSource: CelesTrak SupGP

Epoch: Sep 14, 2026, 14:07 UTC

1 60362C 24138H   26257.58868056  .00070862  00000+0  20935-2 0  2573
2 60362  53.1571 151.1382 0001139 102.6993 255.0407 15.34357390    10

Track STARLINK-32256 in real time with AllMySat

Download on the App Store